Regional Weather Roundup
Issued by NWS

Home | Current Version | Previous Version | Text Only | Print | Product List | Glossary Off
Versions: 1 2 3 4 5 6 7 8 9 10 11 12 13 14 15 16 17 18 19 20 21 22 23 24 25 26 27 28 29 30 31 32 33 34 35 36 37 38 39 40 41 42 43 44 45 46 47 48 49 50

000
ASUS43 KDMX 040207
RWRIA

WEATHER ROUNDUP FOR IOWA
NATIONAL WEATHER SERVICE DES MOINES IA
900 PM CDT MON AUG 03 2015

NOTE: "FAIR" INDICATES FEW OR NO CLOUDS BELOW 12,000 FEET WITH NO
SIGNIFICANT WEATHER AND/OR OBSTRUCTIONS TO VISIBILITY.

* - THESE STATIONS ARE NOT NWS STATIONS...THUS NOT UNDER NWS
QUALITY CONTROL.  THEY ALSO DO NOT REPORT WEATHER SUCH
AS PRECIPITATION OR FOG.

IAZ001>003-012>014-020>022-031>034-043>046-040300-
   NORTHWEST IOWA

CITY           SKY/WX    TMP DP  RH WIND       PRES   REMARKS
CARROLL *      CLEAR     70  66  88 CALM      29.96R
CHEROKEE *     CLEAR     69  64  82 CALM      29.96S
DENISON *      CLEAR     72  63  73 CALM      29.94S
LE MARS *      CLEAR     70  66  88 CALM      29.96S
ORANGE CITY *  CLEAR     70  61  73 CALM      29.96S
SHELDON *      CLEAR     66  64  94 CALM      29.95S
SIOUX CITY     PTCLDY    73  62  68 E6        29.94S
SPENCER        CLEAR     69  60  73 SW5       29.96S
STORM LAKE *   CLEAR     68  61  77 CALM      29.97F
$$

IAZ055>058-069>071-079>083-090>094-040300-
   SOUTHWEST IOWA

CITY           SKY/WX    TMP DP  RH WIND       PRES   REMARKS
ATLANTIC *     CLOUDY    73  66  78 CALM      29.95S
AUDUBON *      CLEAR     70  64  83 CALM      29.97S
CLARINDA *     PTCLDY    73  66  78 E3        29.96S
COUNCIL BLFS * MOCLDY    73  64  73 E5        29.95S
CRESTON *      CLOUDY    72  66  83 NE3       29.98R
HARLAN  *      CLOUDY    72  70  94 CALM      29.99R
LAMONI         PTCLDY    74  63  68 CALM      29.95R
RED OAK *      MOCLDY    72  68  88 CALM      29.95R
SHENANDOAH *   PTCLDY    73  68  83 NE5       29.95R
$$

IAZ047>049-059>061-072>074-084-040300-
   CENTRAL IOWA

CITY           SKY/WX    TMP DP  RH WIND       PRES   REMARKS
AMES           CLEAR     65  61  87 W3        29.94S
ANKENY *       CLEAR     68  61  77 CALM      29.94S
CHARITON *     PTCLDY    70  66  88 N3        29.95S
DES MOINES     PTCLDY    75  55  49 NW3       29.94S
GRINNELL*      CLEAR     70  57  64 CALM      29.95S
KNOXVILLE *    CLEAR     73  59  60 CALM      29.94R
MARSHALLTOWN   CLEAR     70  61  73 NW3       29.94R
PELLA *        CLEAR     68  62  80 CALM      29.95S
PERRY *          N/A     70  66  88 CALM      29.95R
$$

IAZ004>006-015-016-023>025-035-036-040300-
   NORTH CENTRAL IOWA

CITY           SKY/WX    TMP DP  RH WIND       PRES   REMARKS
ALGONA *       PTCLDY    68  64  88 W3        29.95S
CLARION *      CLEAR     66  61  82 CALM      29.95S
ESTHERVILLE    CLEAR     68  60  75 NW5       29.95R
FORT DODGE *   CLEAR     70  59  68 CALM      29.96S
MASON CITY     CLEAR     69  58  67 W6        29.96R
FOREST CITY *    N/A     64  59  82 CALM      29.95S
IOWA FALLS *     N/A     66  61  82 CALM      29.96R
$$

IAZ007>011-017>019-026>030-037>042-050>054-066-040300-
   NORTHEAST IOWA

CITY           SKY/WX    TMP DP  RH WIND       PRES   REMARKS
CEDAR RAPIDS   CLEAR     65  60  84 W6        29.93R
CHARLES CITY * CLEAR     64  61  88 NW5       29.94R
CLINTON *      CLEAR     64  59  82 W8        29.94R
DECORAH *      CLEAR     68  54  60 CALM      29.92R
DUBUQUE        CLEAR     67  55  65 W5        29.93R
MONTICELLO *   CLEAR     64  61  88 CALM      29.93R
OELWEIN *        N/A    N/A N/A N/A W5        29.94R
WATERLOO       CLEAR     69  59  70 W5        29.92R
$$

IAZ064-065-067-068-078-040300-
   EAST CENTRAL IOWA

CITY           SKY/WX    TMP DP  RH WIND       PRES   REMARKS
DAVENPORT      CLEAR     65  59  81 W7        29.93R
IOWA CITY      CLEAR     68  59  73 W5        29.94R
MT. PLEASANT *   N/A     72  59  63 CALM      29.94R
MUSCATINE *    CLEAR     70  57  64 W6        29.93R
QUAD CITIES    CLEAR     69  58  67 W3        29.92R
$$

IAZ062-063-075>077-085>089-095>099-040300-
   SOUTHEAST IOWA

CITY           SKY/WX    TMP DP  RH WIND       PRES   REMARKS
BURLINGTON     CLEAR     71  60  68 NW3       29.93R
FAIRFIELD *    CLEAR     66  63  88 NW5       29.95R
FORT MADISON * CLEAR     68  63  83 CALM      29.95R
KEOKUK *       CLEAR     73  63  68 CALM      29.93R
OSKALOOSA *      N/A     62  61  94 CALM      29.96R
CENTERVILLE *    N/A     72  64  78 CALM      29.97R
OTTUMWA        CLEAR     68  61  78 N5        29.93R
WASHINGTON *   CLEAR     66  59  77 NW6       29.95S
$$

ABBREVIATIONS USED IN REMARKS
   TC - TEMPERATURES IN CELSIUS
  WCI - WIND CHILL INDEX
   HX - HEAT INDEX
  VSB - VISIBILITY
$$



USA.gov is the U.S. government's official web portal to all federal, state and local government web resources and services.